Location: Palomar Mountain Lodge
(33.3110°N, 116.8495°W)
Time: 08:44:52
(UTC-07:00)

Cosmos 2341 Rocket - Pass Details

Date: 12 July 2018
Orbit: 967 x 1005 km, 82.9° (Epoch: 20 September)

Event Time Altitude Azimuth Distance (km) Brightness Sun altitude
Rises 22:41:51 0° 351° (N) 3,736 8.1 -26.6°
Reaches altitude 10° 22:44:24 10° 350° (N) 2,782 7.2 -26.9°
Maximum altitude 22:50:45 73° 267° (W) 1,044 4.1 -27.6°
Enters shadow 22:51:56 59° 207° (SSW) 1,148 4.1 -27.7°
